Tiempo cada hora Goiatuba

Hoy, 25 Noviembre, Miércoles

Tiempo Temperatura Precipitaciones Viento Presión Humedad
00:00 +21°C° 0.2 mm 3 mps 697 mmHg 86%
01:00 +20°C° 0 mm 3 mps 697 mmHg 87%
02:00 +20°C° 0 mm 3 mps 696 mmHg 89%
03:00 +20°C° 0 mm 3 mps 696 mmHg 90%
04:00 +20°C° 0 mm 3 mps 696 mmHg 90%
05:00 +19°C° 0 mm 3 mps 697 mmHg 90%
06:00 +19°C° 0 mm 3 mps 697 mmHg 90%
07:00 +21°C° 0 mm 4 mps 698 mmHg 81%
08:00 +23°C° 0 mm 5 mps 698 mmHg 73%
09:00 +27°C° 0 mm 6 mps 699 mmHg 64%
10:00 +28°C° 0.6 mm 6 mps 699 mmHg 60%
11:00 +29°C° 0.6 mm 5 mps 699 mmHg 56%
12:00 +30°C° 0.6 mm 5 mps 699 mmHg 52%
13:00 +30°C° 2 mm 4 mps 698 mmHg 52%
14:00 +30°C° 2 mm 4 mps 697 mmHg 53%
15:00 +30°C° 2 mm 3 mps 696 mmHg 53%
16:00 +29°C° 0.8 mm 3 mps 696 mmHg 59%
17:00 +27°C° 0.8 mm 3 mps 696 mmHg 65%
18:00 +26°C° 0.8 mm 3 mps 696 mmHg 71%
19:00 +25°C° 0.1 mm 3 mps 696 mmHg 75%
20:00 +22°C° 0.1 mm 3 mps 696 mmHg 79%
21:00 +21°C° 0.1 mm 3 mps 697 mmHg 83%
22:00 +21°C° 0 mm 3 mps 697 mmHg 84%
23:00 +21°C° 0 mm 3 mps 697 mmHg 84%

Mañana, 26 Noviembre, Jueves

Tiempo Temperatura Precipitaciones Viento Presión Humedad
00:00 +21°C° 0 mm 3 mps 697 mmHg 85%
01:00 +20°C° 0 mm 3 mps 696 mmHg 86%
02:00 +20°C° 0 mm 3 mps 696 mmHg 87%
03:00 +20°C° 0 mm 3 mps 695 mmHg 88%
04:00 +20°C° 0 mm 3 mps 695 mmHg 88%
05:00 +20°C° 0 mm 3 mps 695 mmHg 88%
06:00 +20°C° 0 mm 3 mps 696 mmHg 88%
07:00 +22°C° 0 mm 4 mps 696 mmHg 80%
08:00 +23°C° 0 mm 5 mps 697 mmHg 73%
09:00 +26°C° 0 mm 6 mps 698 mmHg 65%
10:00 +28°C° 0.2 mm 6 mps 698 mmHg 61%
11:00 +29°C° 0.2 mm 5 mps 698 mmHg 56%
12:00 +32°C° 0.2 mm 4 mps 698 mmHg 51%
13:00 +30°C° 1.1 mm 4 mps 697 mmHg 52%
14:00 +30°C° 1.1 mm 3 mps 696 mmHg 52%
15:00 +30°C° 1.1 mm 3 mps 696 mmHg 53%
16:00 +29°C° 0.5 mm 3 mps 696 mmHg 57%
17:00 +28°C° 0.5 mm 3 mps 695 mmHg 62%
18:00 +27°C° 0.5 mm 2 mps 695 mmHg 66%
19:00 +26°C° 0.1 mm 3 mps 695 mmHg 70%
20:00 +24°C° 0.1 mm 3 mps 696 mmHg 74%
21:00 +22°C° 0.1 mm 3 mps 696 mmHg 77%
22:00 +22°C° 0.2 mm 3 mps 696 mmHg 80%
23:00 +21°C° 0.2 mm 3 mps 696 mmHg 82%

Pasado mañana, 27 Noviembre, Viernes

Tiempo Temperatura Precipitaciones Viento Presión Humedad
00:00 +21°C° 0.2 mm 3 mps 696 mmHg 85%
01:00 +20°C° 0 mm 3 mps 696 mmHg 86%
02:00 +20°C° 0 mm 3 mps 695 mmHg 88%
03:00 +20°C° 0 mm 3 mps 695 mmHg 89%
04:00 +19°C° 0 mm 3 mps 695 mmHg 88%
05:00 +19°C° 0 mm 3 mps 695 mmHg 88%
06:00 +19°C° 0 mm 3 mps 696 mmHg 88%
07:00 +21°C° 0 mm 4 mps 696 mmHg 79%
08:00 +23°C° 0 mm 4 mps 697 mmHg 70%
09:00 +27°C° 0 mm 5 mps 698 mmHg 61%
10:00 +28°C° 0 mm 5 mps 698 mmHg 57%
11:00 +30°C° 0 mm 4 mps 698 mmHg 52%
12:00 +32°C° 0 mm 4 mps 698 mmHg 48%
13:00 +31°C° 0 mm 3 mps 697 mmHg 47%
14:00 +31°C° 0 mm 3 mps 696 mmHg 46%
15:00 +31°C° 0 mm 3 mps 696 mmHg 46%
16:00 +30°C° 0 mm 2 mps 696 mmHg 50%
17:00 +30°C° 0 mm 2 mps 695 mmHg 54%
18:00 +29°C° 0 mm 1 mps 695 mmHg 58%
19:00 +27°C° 0 mm 2 mps 696 mmHg 61%
20:00 +26°C° 0 mm 3 mps 696 mmHg 64%
21:00 +24°C° 0 mm 3 mps 696 mmHg 67%
22:00 +24°C° 0 mm 3 mps 696 mmHg 69%
23:00 +22°C° 0 mm 3 mps 696 mmHg 72%

28 Noviembre, Sábado

Tiempo Temperatura Precipitaciones Viento Presión Humedad
00:00 +21°C° 0 mm 2 mps 696 mmHg 74%
01:00 +21°C° 0 mm 2 mps 696 mmHg 76%
02:00 +20°C° 0 mm 3 mps 695 mmHg 77%
03:00 +20°C° 0 mm 3 mps 695 mmHg 79%
04:00 +20°C° 0 mm 3 mps 695 mmHg 81%
05:00 +20°C° 0 mm 2 mps 696 mmHg 82%
06:00 +20°C° 0 mm 2 mps 696 mmHg 84%
07:00 +22°C° 0 mm 3 mps 697 mmHg 76%
08:00 +25°C° 0 mm 5 mps 697 mmHg 67%
09:00 +27°C° 0 mm 6 mps 698 mmHg 59%
10:00 +28°C° 0 mm 6 mps 698 mmHg 55%
11:00 +30°C° 0 mm 5 mps 698 mmHg 51%
12:00 +32°C° 0 mm 5 mps 698 mmHg 46%
13:00 +33°C° 0 mm 5 mps 697 mmHg 45%
14:00 +33°C° 0 mm 5 mps 697 mmHg 44%
15:00 +33°C° 0 mm 4 mps 696 mmHg 43%
16:00 +32°C° 0 mm 4 mps 696 mmHg 48%
17:00 +30°C° 0 mm 4 mps 696 mmHg 54%
18:00 +29°C° 0 mm 3 mps 696 mmHg 59%
19:00 +27°C° 0 mm 3 mps 696 mmHg 62%
20:00 +26°C° 0 mm 3 mps 696 mmHg 65%
21:00 +25°C° 0 mm 3 mps 697 mmHg 68%
22:00 +24°C° 0 mm 3 mps 697 mmHg 71%
23:00 +24°C° 0 mm 3 mps 697 mmHg 74%

29 Noviembre, Domingo

Tiempo Temperatura Precipitaciones Viento Presión Humedad
00:00 +22°C° 0 mm 3 mps 697 mmHg 77%
01:00 +21°C° 0 mm 2 mps 697 mmHg 77%
02:00 +21°C° 0 mm 2 mps 696 mmHg 78%
03:00 +21°C° 0 mm 2 mps 696 mmHg 78%
04:00 +20°C° 0 mm 3 mps 696 mmHg 77%
05:00 +20°C° 0 mm 3 mps 696 mmHg 77%
06:00 +20°C° 0 mm 4 mps 697 mmHg 76%
07:00 +22°C° 0 mm 4 mps 697 mmHg 72%
08:00 +25°C° 0 mm 5 mps 698 mmHg 67%
09:00 +27°C° 0 mm 6 mps 699 mmHg 62%
10:00 +28°C° 0 mm 6 mps 699 mmHg 58%
11:00 +30°C° 0 mm 5 mps 698 mmHg 53%
12:00 +32°C° 0 mm 5 mps 698 mmHg 49%
13:00 +32°C° 0 mm 4 mps 698 mmHg 48%
14:00 +32°C° 0 mm 4 mps 697 mmHg 48%
15:00 +32°C° 0 mm 4 mps 697 mmHg 48%
16:00 +30°C° 0 mm 3 mps 697 mmHg 51%
17:00 +30°C° 0 mm 3 mps 696 mmHg 54%
18:00 +29°C° 0 mm 2 mps 696 mmHg 57%
19:00 +27°C° 0 mm 2 mps 696 mmHg 60%
20:00 +26°C° 0 mm 3 mps 697 mmHg 63%
21:00 +25°C° 0 mm 3 mps 697 mmHg 66%
22:00 +24°C° 0 mm 3 mps 697 mmHg 69%
23:00 +23°C° 0 mm 4 mps 696 mmHg 71%

30 Noviembre, Lunes

Tiempo Temperatura Precipitaciones Viento Presión Humedad
00:00 +22°C° 0 mm 4 mps 696 mmHg 73%
01:00 +22°C° 0 mm 3 mps 696 mmHg 74%
02:00 +21°C° 0 mm 3 mps 696 mmHg 76%
03:00 +21°C° 0 mm 3 mps 695 mmHg 77%
04:00 +20°C° 0 mm 3 mps 696 mmHg 78%
05:00 +20°C° 0 mm 3 mps 696 mmHg 78%
06:00 +20°C° 0 mm 3 mps 696 mmHg 79%
07:00 +22°C° 0 mm 3 mps 697 mmHg 72%
08:00 +25°C° 0 mm 4 mps 697 mmHg 65%
09:00 +27°C° 0 mm 5 mps 698 mmHg 58%
10:00 +29°C° 0 mm 5 mps 698 mmHg 53%
11:00 +30°C° 0 mm 4 mps 698 mmHg 48%
12:00 +33°C° 0 mm 4 mps 697 mmHg 43%
13:00 +33°C° 0 mm 4 mps 697 mmHg 42%
14:00 +33°C° 0 mm 3 mps 696 mmHg 41%
15:00 +33°C° 0 mm 3 mps 695 mmHg 41%
16:00 +31°C° 0 mm 3 mps 695 mmHg 46%
17:00 +30°C° 0 mm 2 mps 695 mmHg 50%
18:00 +29°C° 0 mm 2 mps 695 mmHg 55%
19:00 +28°C° 0 mm 2 mps 695 mmHg 58%
20:00 +26°C° 0 mm 3 mps 695 mmHg 61%
21:00 +25°C° 0 mm 3 mps 695 mmHg 64%
22:00 +24°C° 0 mm 3 mps 695 mmHg 66%
23:00 +24°C° 0 mm 3 mps 695 mmHg 68%
Mostrar más

Necesitamos Su Consentimiento

Meteoprog y nuestros Proveedores de Servicios pueden almacenar y acceder a sus datos personales como cookies, identificadores de dispositivo u otras tecnologías similares de su dispositivo y procesar dichos datos para personalizar contenido y anuncios, además de ofrecer funciones de redes sociales y analizar el tráfico.

  • Almacenar y/o acceder a información en su dispositivo

    Se puede almacenar o acceder a cookies, identificadores de dispositivo u otra información de su dispositivo para los fines anteriormente indicados.

  • Anuncios y contenido personalizados, medición de anuncios y contenido, percepciones del público, y desarrollo de productos

    Los anuncios y el contenido pueden personalizarse en base a su perfil. Se pueden añadir más datos para personalizar mejor los anuncios y contenidos. Se puede medir el rendimiento de los anuncios y contenidos. Se puede obtener la percepción sobre el público que ha visto los anuncios y contenidos. Dichos datos pueden usarse para desarrollar o mejorar la experiencia del usuario, sistemas y software.

Al hacer clic en ‘Estoy De Acuerdo’ usted permitirá el uso de las cookies, identificadores de dispositivo, balizas web u otras tecnologías similares indicadas. Su configuración puede cambiarse desde el navegador de su dispositivo.

Para ciertos fines, los intereses legítimos pueden ser considerados por encima del consentimiento. Puede leer más sobre ello en nuestra Política de Privacidad y Cookies.